Home > Weather > Köniz > Past weeks

Flag for Switzerland Weather for the Past 2 Weeks in Köniz, Bern, Switzerland

Now
30 °F

Chilly.


Feels Like: 27 °F
Forecast: 33 / 48 °F
Wind: 3 mph from South

Location: Bern / Belp

Current Time: Feb 7, 2016 at 2:29:38 AM

Latest Report: Feb 7, 2016 at 1:50 AM


Visibility: 4 mi

Pressure: 29.77 "Hg (27.68 "Hg at 579m altitude)

Humidity: 100%

Dew point: 30 °F

Location of KönizLocation

Historic Weather in Köniz — Graph

°F

Köniz Temperature Yesterday

Maximum temperature yesterday: 50 °F (at 2:50 PM)
Minimum temperature yesterday: 27 °F (at 7:20 AM)
Average temperature yesterday: 36 °F

High & Low Weather Summary for the Past Weeks

 TemperatureHumidityPressure
High59 °F (Feb 1, 11:50 AM)100% (Jan 23, 3:50 AM)30.60 "Hg (Jan 23, 3:50 AM)
Low25 °F (Jan 24, 1:20 AM)54% (Jan 25, 2:20 PM)29.80 "Hg (Feb 6, 11:20 PM)
Average40 °F88%30.32 "Hg
* Reported Jan 23 12:20 AM — Feb 7 12:50 AM, Köniz, Weather by CustomWeather, © 2016

Note: Actual official high and low records may vary slightly from our data, if they occured in-between our weather recording intervals... More about our weather records

Advertising

Köniz Weather History for the Previous 24 Hours

 ConditionsComfort  
Time TempWeatherWind HumidityBarometerVisibility
12:50 AM
Sun, Feb 7
30 °FClear.1 mph100%29.80 "Hg4 mi
12:20 AM30 °FChilly.3 mph100%29.80 "Hg4 mi
11:50 PM
Sat, Feb 6
32 °FChilly.1 mph100%29.80 "Hg4 mi
11:20 PM32 °FChilly.1 mph100%29.80 "HgN/A
9:50 PM32 °FClear.1 mph100%29.83 "Hg5 mi
9:20 PM32 °FClear.1 mph100%29.83 "Hg3 mi
8:50 PM34 °FClear.1 mph100%29.86 "Hg5 mi
8:20 PM34 °FChilly.2 mph100%29.86 "HgN/A
7:50 PM36 °FClear.2 mph100%29.89 "Hg10 mi
7:20 PM36 °FClear.3 mph100%29.89 "Hg10 mi
6:50 PM36 °FClear.1 mph100%29.89 "HgN/A
6:20 PM39 °FClear.1 mph93%29.92 "Hg10 mi
5:50 PM45 °FClear.3 mph81%29.92 "Hg10 mi
5:20 PM45 °FSunny.5 mph81%29.92 "Hg10 mi
4:50 PM46 °FSunny.3 mph82%29.95 "Hg10 mi
4:20 PM48 °FPassing clouds.5 mph71%29.98 "HgN/A
3:50 PM50 °FPassing clouds.5 mph67%29.98 "HgN/A
3:20 PM50 °FSunny.3 mph67%29.98 "Hg10 mi
2:50 PM50 °FPassing clouds.3 mph62%30.01 "HgN/A
2:20 PM46 °FSunny.2 mph71%30.04 "Hg10 mi
1:50 PM46 °FSunny.2 mph76%30.07 "Hg10 mi
1:20 PM45 °FSunny.2 mph76%30.07 "Hg10 mi
12:50 PM45 °FSunny.1 mph81%30.09 "Hg10 mi
12:20 PM39 °FChilly.1 mph100%30.12 "HgN/A
11:50 AM37 °FFog.2 mph100%30.15 "Hg0 mi
11:20 AM34 °FFog.1 mph100%30.15 "Hg0 mi
10:50 AM34 °FFog.2 mph100%30.15 "Hg0 mi
10:20 AM34 °FFog.3 mph100%30.15 "Hg0 mi
9:50 AM32 °FIce fog.2 mph100%30.18 "Hg1 mi
9:20 AM32 °FIce fog.2 mph100%30.18 "Hg1 mi
8:50 AM30 °FChilly.2 mph100%30.18 "Hg6 mi
8:20 AM28 °FChilly.1 mph100%30.18 "HgN/A
7:50 AM27 °FChilly.2 mph100%30.15 "HgN/A
7:20 AM27 °FClear.3 mph100%30.15 "Hg1 mi
6:50 AM28 °FChilly.No wind100%30.15 "Hg3 mi
6:20 AM28 °FChilly.No wind100%30.15 "Hg3 mi
5:50 AM28 °FIce fog.No wind100%30.18 "Hg3 mi
5:20 AM28 °FLight fog.1 mph100%30.18 "Hg1 mi
4:50 AM28 °FIce fog.1 mph100%30.18 "Hg1 mi
4:20 AM28 °FIce fog.1 mph100%30.18 "Hg1 mi
3:50 AM28 °FChilly.2 mph100%30.18 "Hg4 mi
3:20 AM30 °FIce fog.1 mph100%30.21 "Hg2 mi
2:50 AM32 °FChilly.1 mph100%30.21 "Hg4 mi
2:20 AM32 °FClear.1 mph100%30.21 "Hg10 mi
Weather by CustomWeather, © 2016

See weather overviewHow to use our weather pages